Lid_Strength_Index
6 8 8 10 15 16 19 17 14 14 14 12 11 11 12 10 10 12 6 4 4 3 2 1 -0 0 1 1 1 1 1 1 1 1 1 1 1 1 -0 -1 -1 -1 -1 -1 -1 -1 -1 -1 -1
8 7 9 13 17 20 19 17 15 14 12 11 11 11 11 11 9 8 5 4 4 4 3 2 -0 0 1 2 2 1 1 1 2 2 2 2 2 2 2 1 1 0 -1 -1 -1 -1 -1 -1 -1
9 8 11 14 18 19 18 16 15 12 11 12 13 12 12 12 10 6 6 4 5 5 3 2 1 1 1 1 1 1 1 1 0 -0 -1 1 2 2 2 2 2 1 1 1 -0 -0 0 0 -0
10 10 13 15 17 15 16 15 12 13 12 11 12 12 12 10 9 6 5 5 5 4 3 1 1 1 1 1 0 0 1 1 1 0 0 0 0 1 3 3 3 3 3 2 2 2 2 2 1
12 14 17 18 17 15 15 14 15 14 13 11 13 14 13 11 8 6 6 5 5 5 4 3 1 1 1 1 1 1 1 1 1 1 1 1 1 1 1 1 1 1 1 3 2 2 2 2 2
14 15 19 20 18 16 15 15 15 15 15 14 12 14 12 11 8 8 7 7 6 6 5 4 2 2 2 2 2 2 2 2 2 2 2 2 2 3 2 2 1 1 1 2 3 4 3 3 4
15 17 19 19 18 17 15 15 17 16 16 16 13 13 13 12 9 8 8 8 8 8 7 7 7 5 3 3 3 3 3 3 3 3 4 4 4 4 4 3 2 2 2 2 2 3 4 5 5
15 16 19 19 18 17 16 16 15 16 16 14 12 15 14 12 10 10 10 10 10 10 9 9 9 10 9 8 4 4 4 5 5 5 6 6 6 6 6 5 4 3 3 3 3 3 3 3 4
15 18 19 18 18 17 16 17 15 15 15 15 14 14 13 11 11 11 12 12 12 11 12 11 10 11 10 9 8 7 6 7 7 8 7 9 10 9 9 7 6 5 5 4 3 4 4 5 6
16 19 17 16 16 17 16 17 16 16 16 16 16 13 12 12 11 12 12 13 13 13 12 12 12 12 11 10 11 12 11 12 12 11 12 11 11 10 10 9 7 7 6 6 5 5 6 7 9
16 17 16 16 15 15 16 16 16 17 17 15 16 15 12 13 13 12 12 12 12 12 12 12 12 12 12 12 12 12 12 13 12 12 12 12 12 12 12 12 12 11 9 11 10 10 10 9 9
17 16 16 14 14 15 16 16 16 16 15 15 14 14 12 12 12 12 12 13 12 13 12 12 12 12 12 12 13 13 13 13 13 12 12 13 13 13 13 13 13 12 12 12 11 11 10 9 9
17 16 15 14 14 15 15 15 15 15 14 14 14 14 13 12 12 12 12 12 12 13 13 12 13 13 12 13 13 13 13 13 13 13 12 12 13 13 13 13 13 13 13 12 12 11 11 10 10
15 15 15 14 15 15 15 16 16 15 15 15 15 15 15 13 12 13 12 12 12 12 13 13 13 13 13 13 14 14 14 13 13 13 13 12 13 13 13 13 13 13 13 12 12 12 12 11 11
15 16 15 15 15 15 15 16 17 15 15 15 16 15 15 14 14 13 12 12 12 12 12 13 13 12 13 13 13 13 13 13 13 13 13 12 12 13 14 14 14 13 13 13 13 13 12 12 11
16 17 18 15 15 15 15 18 15 16 15 16 15 16 16 15 15 15 14 13 12 12 12 12 11 12 13 13 14 13 13 14 14 13 13 12 12 12 13 14 14 13 13 13 14 13 13 13 13
17 19 19 17 15 16 17 18 15 16 15 15 16 17 17 16 16 15 15 15 12 12 12 13 13 13 13 13 13 14 14 14 14 14 13 13 12 12 13 13 13 13 13 14 14 14 13 13 13
19 19 18 18 17 17 18 18 16 16 16 17 18 18 18 17 17 16 15 15 14 14 13 13 13 13 13 13 14 14 14 14 14 14 14 13 13 12 13 14 14 13 14 14 14 14 13 14 13
16 18 18 17 17 18 18 19 16 16 18 18 18 18 18 18 17 16 15 15 15 14 14 13 13 14 14 15 15 15 15 15 14 14 13 13 13 13 13 14 14 14 14 15 14 14 14 14 14
17 18 19 17 17 18 19 19 17 16 18 18 18 18 18 18 18 16 16 16 15 15 14 14 14 14 14 14 15 15 15 15 14 13 14 14 14 13 13 14 15 15 15 15 14 14 14 14 14
17 18 19 18 18 19 20 20 19 18 18 18 18 18 18 18 18 18 16 16 16 15 15 14 14 14 14 14 15 15 15 15 15 14 15 14 14 13 14 14 15 15 15 15 14 15 15 15 13
18 16 17 18 19 22 20 25 20 19 18 18 17 18 18 18 17 17 16 17 16 15 16 14 14 15 15 15 16 16 16 16 16 16 15 15 15 14 14 14 15 15 15 15 15 13 12 13 13
17 16 17 18 20 23 21 25 21 20 19 19 18 17 17 18 18 17 16 15 15 15 16 16 16 15 15 15 16 17 17 17 16 16 16 16 16 15 15 15 16 16 16 15 14 14 13 14 14
16 17 17 19 20 26 22 22 22 21 20 19 19 18 17 18 17 16 15 15 16 16 16 17 16 15 15 16 16 16 17 17 17 17 17 16 16 16 16 15 16 15 14 13 13 13 13 13 13
16 18 22 23 25 25 22 23 21 20 19 20 18 18 19 19 17 16 16 16 16 16 16 16 16 16 16 16 16 16 16 16 17 17 16 17 17 17 17 15 15 15 14 13 13 13 13 13 14
18 17 21 25 27 26 21 25 20 20 23 25 22 23 19 18 16 17 17 16 16 15 16 16 16 17 17 17 17 17 17 17 17 16 16 17 17 17 15 14 14 14 14 13 13 13 13 13 14
18 19 18 24 27 28 26 22 19 19 21 22 22 17 18 18 18 18 17 17 17 17 17 17 17 17 17 17 17 18 19 17 18 16 15 16 15 15 14 14 14 14 14 14 14 14 14 15 15
17 17 20 22 27 29 27 26 23 22 21 21 22 18 18 18 18 18 18 18 17 19 18 17 18 20 20 18 19 17 18 18 19 19 17 18 15 15 15 15 15 15 15 14 14 15 15 15 15
19 20 20 19 24 28 29 25 25 23 21 21 20 18 20 19 20 19 19 19 22 23 24 22 23 24 21 20 20 19 18 18 21 19 19 16 15 15 16 16 15 15 15 15 15 15 15 15 15
19 21 20 22 27 29 28 25 27 27 23 21 19 17 20 19 20 21 21 22 24 25 24 26 25 27 23 22 21 20 19 21 23 22 20 17 16 15 16 15 15 15 15 15 15 15 16 18 20